Stations météo

réclame
Mon MeteoGroup
Mont-De-Marsan, France (7607): Température de l'air & dewpoint: 13.12.2018 15:00:00 - 19.12.2018 15:00:00 (CET)Mont-De-Marsan, France (7607): Température de l'air 5cm: 13.12.2018 15:00:00 - 19.12.2018 15:00:00 (CET)Mont-De-Marsan, France (7607): Température de l'air -20cm & Température de l'air -100cm: 13.12.2018 15:00:00 - 19.12.2018 15:00:00 (CET)Mont-De-Marsan, France (7607): Vitesse du vent & gusts: 13.12.2018 15:00:00 - 19.12.2018 15:00:00 (CET)Mont-De-Marsan, France (7607): Direction du vent: 13.12.2018 15:00:00 - 19.12.2018 15:00:00 (CET)Mont-De-Marsan, France (7607): reduced air pressure: 13.12.2018 15:00:00 - 19.12.2018 15:00:00 (CET)Mont-De-Marsan, France (7607): visibility: 13.12.2018 15:00:00 - 19.12.2018 15:00:00 (CET)Mont-De-Marsan, France (7607): Ensoleillement: 13.12.2018 15:00:00 - 19.12.2018 15:00:00 (CET)Mont-De-Marsan, France (7607): Quantités de précipitations: 13.12.2018 15:00:00 - 19.12.2018 15:00:00 (CET)
Date & Time tt [°C] td [°C] tt 5cm [°C] tt -20cm [°C] tt -100cm [°C] ff [km/h] ff [knt] fx [km/h] fx [knt] dd ppp [hPa] vv [km] sd [min] rr [mm]
19.12.2018 15:00:00 - - - - - - - - - - - - - -
19.12.2018 14:00:00 14,6 5,7 14,3 8,9 12,0 27 15 50 27 W 1018,3 60 45 0,0
19.12.2018 13:00:00 13,5 5,1 13,4 8,9 12,0 13 7 22 12 WSW 1018,4 60 13 0,0
19.12.2018 12:00:00 13,2 5,1 12,6 8,9 12,0 12 6 22 12 SW 1018,8 42 60 0,0
19.12.2018 11:00:00 10,7 6,8 8,9 9,0 12,0 4 2 7 4 SSE 1019,0 43 58 0,0
19.12.2018 10:00:00 5,9 5,9 1,4 9,1 12,0 2 1 5 3 E 1018,6 17 53 0,0
19.12.2018 09:00:00 2,6 2,5 -0,4 9,2 12,0 4 2 5 3 E 1018,0 0,9 6 0,0
19.12.2018 08:00:00 3,2 2,9 -0,2 9,3 12,0 3 2 8 4 E 1017,9 6 0 0,0
19.12.2018 07:00:00 4,1 4,1 0,3 9,4 12,0 5 3 9 5 ESE 1017,9 4,7 0 0,0
19.12.2018 06:00:00 4,4 4,3 1,2 9,5 12,1 4 2 8 4 E 1018,1 12 0 0,0
19.12.2018 05:00:00 5,3 3,8 2,4 9,5 12,1 4 2 7 4 E 1018,2 17 0 0,0
19.12.2018 04:00:00 7,8 7,2 5,7 9,5 12,1 3 2 9 5 SSW 1018,5 38 0 0,0
19.12.2018 03:00:00 8,2 7,3 6,6 9,5 12,1 5 3 11 6 E 1018,5 48 0 0,0
19.12.2018 02:00:00 7,7 7,1 6,2 9,5 12,1 5 3 8 4 ESE 1018,4 20 0 0,0
19.12.2018 01:00:00 8,5 7,6 7,8 9,5 12,1 3 2 9 5 E 1018,3 31 0 0,0
19.12.2018 00:00:00 8,5 7,7 7,9 9,5 12,1 6 4 9 5 NW 1018,4 45 0 0,0
18.12.2018 23:00:00 8,8 7,7 8,0 9,5 12,1 3 2 13 7 NW 1018,3 20 0 0,0
18.12.2018 22:00:00 8,8 8,0 8,2 9,5 12,1 4 2 8 4 E 1017,4 32 0 0,0
18.12.2018 21:00:00 9,3 7,7 8,4 9,4 12,2 5 3 15 8 E 1016,4 46 0 0,0
18.12.2018 20:00:00 9,7 7,5 8,5 9,4 12,1 11 6 18 10 E 1016,2 45 0 0,0
18.12.2018 19:00:00 9,9 7,0 9,1 9,3 12,1 12 6 25 13 SE 1015,3 57 0 0,0
18.12.2018 18:00:00 10,3 6,8 9,5 9,2 12,2 14 7 26 14 ESE 1015,1 60 0 0,0
18.12.2018 17:00:00 10,8 6,7 10,0 9,1 12,1 12 7 23 13 ESE 1014,8 59 0 0,0
18.12.2018 16:00:00 11,3 6,2 10,8 9,0 12,2 9 5 21 12 SE 1015,1 60 0 0,0
18.12.2018 15:00:00 11,7 6,2 11,8 8,9 12,1 10 5 20 11 SE 1014,6 60 0 0,0
18.12.2018 14:00:00 11,7 6,0 11,9 8,9 12,2 13 7 25 13 ESE 1014,7 60 18 0,0
18.12.2018 13:00:00 10,5 5,5 9,8 8,8 12,2 14 8 24 13 ESE 1015,7 60 13 0,0
18.12.2018 12:00:00 9,0 4,6 8,6 8,9 12,2 11 6 21 12 SE 1017,5 60 25 0,0
18.12.2018 11:00:00 7,7 4,3 6,3 8,8 12,2 6 3 16 9 ESE 1018,5 60 4 0,0
18.12.2018 10:00:00 6,5 3,8 5,0 8,9 12,2 9 5 19 10 ESE 1018,1 60 0 0,0
18.12.2018 09:00:00 6,1 3,6 4,5 9,0 12,2 10 5 20 11 ESE 1018,4 60 0 0,0
18.12.2018 08:00:00 5,4 3,9 3,5 9,1 12,2 11 6 18 10 E 1018,9 60 0 0,0
18.12.2018 07:00:00 4,9 3,9 3,0 9,2 12,2 9 5 16 9 E 1019,4 60 0 0,0
18.12.2018 06:00:00 5,0 4,0 2,7 9,3 12,2 11 6 18 10 E 1020,0 58 0 0,0
18.12.2018 05:00:00 4,8 4,1 2,1 9,5 12,2 8 4 16 8 ESE 1021,0 47 0 0,0
18.12.2018 04:00:00 3,6 3,3 1,6 9,5 12,2 9 5 14 8 E 1022,3 36 0 0,0
18.12.2018 03:00:00 5,0 4,3 2,4 9,6 12,2 9 5 18 10 E 1022,9 40 0 0,0
18.12.2018 02:00:00 4,0 3,9 1,9 9,8 12,2 9 5 14 7 E 1023,7 19 0 0,0
18.12.2018 01:00:00 4,4 4,1 2,5 9,9 12,2 7 4 11 6 E 1025,0 20 0 0,0
18.12.2018 00:00:00 4,9 4,8 3,4 10,0 12,2 7 4 14 8 E 1025,5 27 0 0,0
17.12.2018 23:00:00 4,6 4,6 1,2 10,1 12,2 8 4 10 6 E 1026,2 19 0 0,0
17.12.2018 22:00:00 4,7 4,7 1,0 10,3 12,2 5 3 9 5 E 1026,5 13 0 0,0
17.12.2018 21:00:00 4,1 4,1 0,9 10,3 12,2 4 2 8 5 ENE 1027,5 14 0 0,0
17.12.2018 20:00:00 5,3 5,3 0,8 10,4 12,2 3 2 8 5 E 1027,8 3,6 0 0,0
17.12.2018 19:00:00 6,3 6,0 2,7 10,4 12,2 6 4 8 4 E 1027,9 20 0 0,0
17.12.2018 18:00:00 7,4 5,9 4,4 10,3 12,2 5 3 8 4 E 1028,0 30 0 0,0
17.12.2018 17:00:00 11,4 7,3 10,1 10,3 12,2 6 3 9 5 SE 1028,0 60 51 0,0
17.12.2018 16:00:00 12,1 8,0 11,5 10,1 12,2 2 1 9 5 S 1028,2 60 13 0,0
17.12.2018 15:00:00 11,6 7,7 10,7 10,0 12,2 8 4 13 7 SW 1028,4 60 0 0,0
17.12.2018 14:00:00 11,9 7,8 12,0 9,9 12,2 7 4 15 8 SW 1028,4 57 11 0,0
17.12.2018 13:00:00 10,8 8,7 10,2 9,9 12,2 5 3 15 8 SSW 1028,9 50 0 0,0
17.12.2018 12:00:00 11,0 8,0 11,4 9,8 12,2 7 4 16 8 SSW 1029,1 60 45 0,0
17.12.2018 11:00:00 10,1 8,2 8,9 9,9 12,2 0 0 9 5 N 1029,2 55 30 0,2
17.12.2018 10:00:00 9,0 7,4 6,2 9,9 12,2 4 2 13 7 S 1029,0 51 30 0,0
17.12.2018 09:00:00 8,0 7,1 7,0 9,9 12,2 8 5 26 14 SSW 1028,5 44 0 0,6
17.12.2018 08:00:00 7,9 6,8 6,6 10,0 12,2 10 5 19 10 SSW 1027,5 19 0 0,0
17.12.2018 07:00:00 7,8 6,7 6,0 10,1 12,2 8 4 16 9 SSW 1026,9 55 0 0,0
17.12.2018 06:00:00 7,7 6,6 6,1 10,1 12,2 6 4 16 9 SW 1026,2 9 0 0,0
17.12.2018 05:00:00 8,0 7,1 6,8 10,2 12,2 8 4 23 12 WSW 1025,8 52 0 0,6
17.12.2018 04:00:00 8,2 7,1 6,7 10,3 12,2 13 7 30 16 WSW 1025,5 13 0 0,4
17.12.2018 03:00:00 8,1 6,9 6,6 10,4 12,2 9 5 29 16 SW 1024,7 15 0 1,2
17.12.2018 02:00:00 8,2 6,8 6,8 10,4 12,2 13 7 32 17 W 1024,0 38 0 0,0
17.12.2018 01:00:00 8,2 7,1 6,8 10,5 12,2 15 8 26 14 W 1023,6 20 0 0,2
17.12.2018 00:00:00 8,6 7,8 6,6 10,6 12,2 19 10 30 16 W 1023,5 9 0 1,2
16.12.2018 23:00:00 8,0 6,5 6,7 10,7 12,2 13 7 37 20 WSW 1022,2 58 0 1,0
16.12.2018 22:00:00 9,0 8,1 7,3 10,7 12,2 13 7 35 19 W 1021,8 19 0 0,0
16.12.2018 21:00:00 8,8 7,6 7,8 10,7 12,2 12 6 40 21 WSW 1020,3 60 0 0,4
16.12.2018 20:00:00 9,3 7,7 8,1 10,7 12,2 22 12 49 26 WNW 1019,3 13 0 0,2
16.12.2018 19:00:00 9,4 7,8 8,1 10,8 12,2 17 9 51 28 W 1017,8 47 0 1,2
16.12.2018 18:00:00 9,5 8,3 8,1 10,8 12,2 6 3 16 8 SSW 1016,4 32 0 0,0
16.12.2018 17:00:00 10,1 8,9 9,3 10,7 12,2 9 5 16 9 SW 1016,1 17 38 0,0
16.12.2018 16:00:00 10,0 8,9 9,8 10,7 12,2 6 3 10 5 SSW 1015,3 50 5 0,0
16.12.2018 15:00:00 9,6 8,7 9,1 10,6 12,2 4 2 23 12 W 1014,7 51 0 0,6
16.12.2018 14:00:00 9,6 9,1 9,4 10,5 12,2 14 7 29 16 NNW 1014,3 9 0 1,4
16.12.2018 13:00:00 10,8 10,2 10,3 10,5 12,2 7 4 13 7 NNE 1013,5 35 0 0,0
16.12.2018 12:00:00 10,3 10,0 9,7 10,5 12,2 4 2 8 5 NNE 1014,5 52 0 0,0
16.12.2018 11:00:00 9,7 9,4 9,1 10,5 12,2 5 3 17 9 N 1015,6 16 0 0,0
16.12.2018 10:00:00 9,3 8,8 9,0 10,5 12,2 11 6 19 11 SSE 1015,8 42 0 0,4
16.12.2018 09:00:00 9,4 9,1 9,0 10,5 12,2 5 3 11 6 SSW 1016,8 2,6 0 0,6
16.12.2018 08:00:00 9,5 9,0 9,1 10,5 12,2 5 3 8 4 WSW 1016,5 19 0 0,0
16.12.2018 07:00:00 9,6 9,0 9,1 10,5 12,2 5 3 14 8 SSW 1016,1 37 0 0,6
16.12.2018 06:00:00 10,8 10,3 10,3 10,5 12,2 8 5 12 7 W 1016,6 19 0 1,2
16.12.2018 05:00:00 11,3 10,8 10,8 10,5 12,2 6 4 9 5 W 1016,9 7 0 0,2
16.12.2018 04:00:00 11,8 11,2 11,0 10,4 12,2 3 2 19 10 W 1016,9 11 0 0,0
16.12.2018 03:00:00 12,0 11,5 10,7 10,4 12,2 10 6 16 8 SW 1017,3 15 0 0,0
16.12.2018 02:00:00 10,9 10,9 10,0 10,4 12,3 4 2 9 5 SW 1017,6 4,8 0 0,4
16.12.2018 01:00:00 10,2 10,0 9,5 10,4 12,2 3 1 6 3 S 1017,9 2,8 0 1,2
16.12.2018 00:00:00 10,0 9,8 9,3 10,4 12,2 0 0 10 5 N 1017,9 11 0 0,0
15.12.2018 23:00:00 9,8 9,5 9,3 10,4 12,2 0 0 5 3 N 1017,1 15 0 0,0
15.12.2018 22:00:00 10,0 9,7 9,4 10,4 12,2 5 3 8 4 ESE 1016,7 15 0 0,2
15.12.2018 21:00:00 10,0 9,4 9,4 10,4 12,3 6 3 8 4 E 1016,5 21 0 0,2
15.12.2018 20:00:00 10,4 9,5 9,8 10,3 12,3 6 4 9 5 ENE 1016,6 40 0 0,0
15.12.2018 19:00:00 10,7 9,6 10,0 10,3 12,3 4 2 13 7 E 1016,5 56 0 0,0
15.12.2018 18:00:00 10,8 9,7 9,8 10,2 12,3 9 5 11 6 ENE 1016,5 59 0 0,0
15.12.2018 17:00:00 11,9 10,1 11,5 10,0 12,3 5 3 13 7 ESE 1016,8 60 6 0,0
15.12.2018 16:00:00 12,2 10,3 11,7 9,9 12,3 5 3 11 6 E 1017,6 31 0 0,0
15.12.2018 15:00:00 12,4 9,8 12,7 9,8 12,3 6 4 11 6 E 1017,5 60 0 0,0
15.12.2018 14:00:00 12,0 9,2 12,2 9,7 12,3 5 3 8 5 ESE 1018,2 60 0 0,0
15.12.2018 13:00:00 11,3 8,3 10,7 9,6 12,3 5 3 12 7 ESE 1019,2 60 6 0,0
15.12.2018 12:00:00 9,6 8,7 9,6 9,6 12,3 5 3 10 6 E 1020,3 34 0 0,0
15.12.2018 11:00:00 8,4 8,1 8,0 9,6 12,3 5 3 11 6 ESE 1020,8 19 0 0,0
15.12.2018 10:00:00 7,5 7,4 7,1 9,6 12,3 6 3 13 7 ESE 1021,0 12 0 0,0
15.12.2018 09:00:00 7,0 7,0 6,8 9,6 12,3 6 3 14 7 E 1020,8 10 0 0,0
15.12.2018 08:00:00 6,8 6,8 6,4 9,6 12,3 8 4 13 7 ESE 1020,9 7 0 0,0
15.12.2018 07:00:00 6,7 6,7 6,4 9,6 12,3 8 5 12 7 E 1021,1 1,4 0 0,0
15.12.2018 06:00:00 6,6 6,6 6,2 9,6 12,3 5 3 9 5 E 1021,5 0,4 0 0,0
15.12.2018 05:00:00 6,6 6,6 6,0 9,7 12,3 3 2 9 5 E 1021,7 0,1 0 0,0
15.12.2018 04:00:00 7,1 7,1 6,8 9,7 12,3 7 4 9 5 E 1022,1 0,1 0 0,0
15.12.2018 03:00:00 7,9 7,9 7,4 9,7 12,3 5 3 9 5 S 1022,6 0,2 0 0,0
15.12.2018 02:00:00 7,7 7,7 4,4 9,8 12,3 4 2 10 5 SSW 1023,0 3,7 0 0,0
15.12.2018 01:00:00 5,0 4,7 4,0 9,8 12,3 4 2 5 3 SE 1023,0 3,7 0 0,0
15.12.2018 00:00:00 5,8 5,8 4,0 9,9 12,3 2 1 5 3 E 1023,5 6 0 0,0
14.12.2018 23:00:00 6,2 6,1 5,7 10,0 12,4 0 0 6 3 N 1023,7 6 0 0,0
14.12.2018 22:00:00 5,9 5,9 1,4 10,0 12,4 3 2 4 2 WSW 1023,9 8 0 0,0
14.12.2018 21:00:00 6,1 5,8 3,4 10,1 12,4 0 0 4 2 N 1023,6 1,6 0 0,0
14.12.2018 20:00:00 6,9 6,3 4,4 10,1 12,4 0 0 7 4 N 1023,7 11 0 0,0
14.12.2018 19:00:00 7,1 6,7 3,8 10,2 12,4 4 2 7 4 W 1023,3 16 0 0,0
14.12.2018 18:00:00 7,2 6,3 3,3 10,1 12,4 6 3 10 5 WNW 1022,8 27 0 0,0
14.12.2018 17:00:00 9,1 6,7 8,4 10,1 12,4 8 4 18 10 NW 1022,0 35 36 0,0
14.12.2018 16:00:00 10,3 7,9 10,1 10,0 12,4 13 7 22 12 WNW 1022,2 40 2 0,0
14.12.2018 15:00:00 10,2 8,3 10,2 9,9 12,4 13 7 29 16 WNW 1021,3 38 0 0,0
14.12.2018 14:00:00 10,3 8,7 10,0 9,8 12,4 15 8 22 12 W 1020,4 27 0 0,0
14.12.2018 13:00:00 9,4 8,5 9,4 9,8 12,4 16 9 23 12 W 1020,4 14 0 0,0
14.12.2018 12:00:00 8,8 8,5 8,2 9,8 12,4 8 4 15 8 W 1020,0 13 4 0,0
14.12.2018 11:00:00 7,5 7,5 7,5 9,8 12,4 5 3 9 5 W 1019,9 14 0 0,0
14.12.2018 10:00:00 6,4 6,4 6,0 9,8 12,4 4 2 12 7 W 1018,8 13 0 0,0
14.12.2018 09:00:00 5,9 5,9 5,7 9,9 12,5 9 5 13 7 W 1018,1 0,2 0 0,0
14.12.2018 08:00:00 6,1 6,1 6,0 9,8 12,4 4 2 7 4 W 1016,6 0,2 0 0,0
14.12.2018 07:00:00 6,7 6,7 6,6 9,9 12,5 0 0 7 4 N 1015,7 0,3 0 0,0
14.12.2018 06:00:00 7,1 7,1 7,0 9,8 12,4 2 1 5 3 W 1015,1 0,3 0 0,0
14.12.2018 05:00:00 7,2 7,2 7,1 9,9 12,5 3 2 7 4 N 1014,7 0,2 0 0,0
14.12.2018 04:00:00 7,3 7,3 7,2 9,9 12,5 4 2 11 6 W 1014,3 0,2 0 0,0
14.12.2018 03:00:00 7,6 7,6 6,1 9,9 12,5 8 4 11 6 W 1014,1 5 0 0,0
14.12.2018 02:00:00 7,6 7,3 6,3 9,9 12,5 0 0 14 7 N 1013,4 6 0 0,0
14.12.2018 01:00:00 8,0 7,9 7,8 9,9 12,5 9 5 12 6 W 1013,2 15 0 0,0
14.12.2018 00:00:00 7,9 7,6 7,7 9,9 12,5 5 3 8 4 NW 1012,8 18 0 0,0
13.12.2018 23:00:00 8,0 7,7 7,8 9,9 12,5 5 3 9 5 NW 1012,1 20 0 0,0
13.12.2018 22:00:00 8,1 7,8 7,9 9,9 12,5 5 3 10 5 NNW 1011,3 60 0 0,0
13.12.2018 21:00:00 8,5 8,2 8,2 9,9 12,5 4 2 9 5 NNW 1010,5 33 0 0,4
13.12.2018 20:00:00 8,8 8,7 8,6 9,9 12,5 6 3 11 6 NNW 1009,8 8 0 0,8
13.12.2018 19:00:00 8,9 8,8 8,5 9,8 12,5 6 3 11 6 N 1008,3 7 0 1,1
13.12.2018 18:00:00 9,0 8,9 8,9 9,8 12,6 5 3 7 4 NE 1007,4 8 0 0,8
13.12.2018 17:00:00 9,0 8,7 8,9 9,7 12,6 0 0 4 2 N 1006,5 6 0 3,2
13.12.2018 16:00:00 9,0 8,7 9,1 9,7 12,6 2 1 9 5 NE 1005,9 6 0 2,4
13.12.2018 15:00:00 9,2 9,1 9,2 9,6 12,6 7 4 10 6 NNE 1005,1 4,3 0 2,6

tt = Température de l'air
td = dewpoint
tt 5cm = Température de l'air 5cm
tt -20cm = Température de l'air -20cm
tt -100cm = Température de l'air -100cm
ff = Vitesse du vent
fx = gusts
dd = Direction du vent
ppp = reduced air pressure
vv = visibility
sd = Ensoleillement
rr = Quantités de précipitations

stations d'obs. à proximité